Tracking 18850 objects as of 22-Nov-2017
HD Live streaming from Space Station
objects crossing your sky now

EUTE 48A (HB2)

Track EUTE 48A (HB2) now!
EUTE 48A (HB2) is classified as:


NORAD ID: 24665
Int'l Code: 1996-067A
Perigee: 36,311.8 km
Apogee: 36,353.0 km
Inclination: 6.6 °
Period: 1,463.7 minutes
Semi major axis: 42703 km
RCS: 0.003 m2 (small)
Launch date: November 21, 1996
Source: European Telecommunications Satellite Organization (EUTE)
Launch site: AIR FORCE EASTERN TEST RANGE (AFETR)

Full coverage of Europe, Middle East, parts of Africa and Asia; 20 active channels
aabbcc
Your satellite tracking list
Your tracking list is empty




NASA's NSSDC Master Catalog

Two Line Element Set (TLE):
1 24665U 96067A   17325.95115971 +.00000015 +00000-0 +00000-0 0  9993
2 24665 006.6290 054.2211 0004816 116.4299 291.2453 00.98380537077276
Source of the keplerian elements: AFSPC